Location: Bothwell
(41.7170°N, 112.2589°W)
Time: 14:12:54
(UTC+00:00)

Vanguard 2 - Pass Details

Date: 19 May 2026
Orbit: 553 x 2894 km, 32.9° (Epoch: 8 June)

Event Time Altitude Azimuth Distance (km) Brightness Sun altitude
Rises 13:11:30 0° 277° (W) 6,735 11.8 10.5°
Reaches altitude 10° 13:16:26 10° 272° (W) 5,669 11.4 11.4°
Maximum altitude 13:31:30 42° 210° (SSW) 3,160 10.5 14.1°
Drops below altitude 10° 13:42:30 10° 145° (SE) 4,172 11.6 16.1°
Sets 13:45:32 0° 138° (SE) 4,866 12.1 16.7°
